DW0152 Weather Reports


Display with metric or nautical units.
time (UTC)temp
F
wind
direction
speed
MPH
gust
MPH
rain 1hr
in
rain 24hr
in
rain mn
in
humidity
%
barometer
mb
20260506194035 51 0 0.0 1.0 0.00 0.11 0.06 77 1011.6
20260506193535 51 0 0.0 1.0 0.00 0.11 0.06 76 1011.7
20260506193045 51 0 0.0 2.0 0.00 0.11 0.06 76 1011.7
20260506192534 51 0 0.0 2.0 0.00 0.11 0.06 76 1011.6
20260506192036 51 0 0.0 1.0 0.00 0.11 0.06 75 1011.6
20260506191541 51 0 0.0 2.0 0.00 0.11 0.06 75 1011.5
20260506191034 51 0 0.0 2.0 0.00 0.11 0.06 75 1011.5
20260506190536 51 0 0.0 2.0 0.00 0.11 0.06 74 1011.3
20260506190049 51 41 0.0 2.0 0.00 0.11 0.06 74 1011.3
20260506185534 52 46 0.0 2.0 0.00 0.12 0.06 73 1011.1
20260506185034 52 0 0.0 2.0 0.00 0.12 0.06 73 1011.1
20260506184548 52 0 0.0 2.0 0.00 0.12 0.06 72 1011.1
20260506184035 52 0 0.0 2.0 0.00 0.12 0.06 72 1011.1
20260506183534 52 0 0.0 2.0 0.00 0.12 0.06 71 1011.0
20260506183055 53 0 0.0 2.0 0.00 0.12 0.06 70 1010.9
20260506182533 53 5 0.0 2.0 0.00 0.12 0.06 70 1011.0
20260506182037 53 0 0.0 2.0 0.00 0.12 0.06 69 1010.9
20260506181554 53 0 0.0 2.0 0.00 0.12 0.06 68 1010.8
20260506181037 53 0 0.0 2.0 0.00 0.12 0.06 68 1010.6
20260506180538 54 0 0.0 3.0 0.00 0.12 0.06 68 1010.6
20260506180043 54 0 0.0 3.0 0.00 0.12 0.06 67 1010.7
20260506175534 54 0 0.0 3.0 0.00 0.12 0.06 67 1010.6
20260506175034 54 13 0.0 3.0 0.00 0.12 0.06 66 1010.4
20260506174548 54 0 0.0 3.0 0.00 0.12 0.06 66 1010.2
20260506174036 54 0 0.0 2.0 0.00 0.12 0.06 65 1010.1
20260506173534 55 0 0.0 2.0 0.00 0.12 0.06 64 1010.1
20260506173049 55 0 0.0 2.0 0.00 0.12 0.06 64 1010.0
20260506172534 55 0 0.0 2.0 0.00 0.12 0.06 63 1010.1
20260506172034 55 0 0.0 3.0 0.00 0.12 0.06 63 1010.0
20260506171550 55 0 0.0 4.0 0.00 0.12 0.06 62 1009.8
20260506171035 55 0 0.0 4.0 0.00 0.12 0.06 62 1009.7
20260506170534 56 5 0.0 2.0 0.00 0.12 0.06 62 1009.7
20260506170052 56 0 0.0 2.0 0.00 0.12 0.06 62 1009.7
20260506165534 56 350 0.0 2.0 0.00 0.12 0.06 63 1009.6
20260506165037 57 348 0.0 2.0 0.00 0.12 0.06 62 1009.6
20260506164601 57 346 0.0 2.0 0.00 0.12 0.06 63 1009.5
20260506164035 57 0 0.0 3.0 0.00 0.12 0.06 64 1009.4
20260506163537 57 285 0.0 3.0 0.00 0.12 0.06 65 1009.5
20260506163056 57 0 0.0 2.0 0.00 0.12 0.06 65 1009.4
20260506162537 57 0 0.0 2.0 0.00 0.12 0.06 65 1009.4
20260506162034 57 0 0.0 2.0 0.00 0.12 0.06 66 1009.4
20260506161546 57 0 0.0 2.0 0.00 0.12 0.06 66 1009.4
20260506161034 57 0 0.0 3.0 0.00 0.12 0.06 65 1009.3
20260506160534 57 0 0.0 3.0 0.00 0.12 0.06 65 1009.2
20260506160056 57 5 0.0 3.0 0.00 0.12 0.06 64 1009.3
20260506155534 57 32 0.0 3.0 0.00 0.13 0.06 64 1009.1
20260506155034 58 0 0.0 3.0 0.00 0.13 0.06 64 1009.2
20260506154552 58 53 0.0 2.0 0.00 0.13 0.06 64 1009.1
20260506154037 58 0 0.0 2.0 0.00 0.13 0.06 64 1009.2
20260506153534 58 0 0.0 1.0 0.00 0.13 0.06 63 1009.2
20260506153048 58 0 0.0 2.0 0.00 0.13 0.06 64 1009.2
20260506152533 58 0 0.0 3.0 0.00 0.13 0.06 63 1009.1
20260506152036 58 0 0.0 3.0 0.00 0.13 0.06 62 1009.1
20260506151553 58 340 0.0 2.0 0.00 0.13 0.06 62 1009.1
20260506151033 58 0 0.0 2.0 0.00 0.13 0.06 63 1009.0
20260506150533 58 0 0.0 2.0 0.00 0.13 0.06 63 1009.0
20260506150100 58 0 0.0 2.0 0.00 0.13 0.06 62 1009.0
20260506145554 58 0 0.0 1.0 0.00 0.13 0.06 62 1009.0
20260506145035 58 53 0.0 2.0 0.00 0.13 0.06 62 1009.0
20260506144541 58 0 0.0 2.0 0.00 0.13 0.06 63 1009.0
20260506144035 58 58 0.0 2.0 0.00 0.13 0.06 63 1008.9
20260506143534 58 0 0.0 2.0 0.00 0.13 0.06 63 1008.8
20260506143043 58 0 0.0 2.0 0.00 0.13 0.06 62 1008.8
20260506142533 58 0 0.0 2.0 0.00 0.13 0.06 62 1008.9
20260506142035 58 19 0.0 2.0 0.00 0.13 0.06 63 1008.8
20260506141544 58 0 0.0 2.0 0.00 0.13 0.06 63 1008.9
20260506141037 59 0 0.0 2.0 0.00 0.13 0.06 63 1008.8
20260506140535 59 0 0.0 2.0 0.00 0.13 0.06 63 1008.8
20260506140041 59 0 0.0 3.0 0.00 0.13 0.06 63 1008.9
20260506135536 59 0 0.0 3.0 0.00 0.13 0.06 65 1009.0
20260506135036 59 0 0.0 2.0 0.00 0.13 0.06 67 1009.1
20260506134551 58 0 0.0 2.0 0.00 0.13 0.06 66 1009.1
20260506134036 58 38 0.0 2.0 0.00 0.13 0.06 67 1009.0
20260506133535 58 0 0.0 2.0 0.00 0.13 0.06 67 1009.1
20260506133101 58 34 0.0 2.0 0.00 0.13 0.06 67 1009.1
20260506132534 57 0 0.0 2.0 0.00 0.13 0.06 67 1009.1
20260506132034 57 0 0.0 1.0 0.00 0.13 0.06 68 1009.1
20260506131547 57 0 0.0 2.0 0.00 0.13 0.06 68 1009.0
20260506131034 57 0 0.0 2.0 0.00 0.13 0.06 68 1009.1
20260506130536 57 0 0.0 2.0 0.00 0.13 0.06 70 1009.1
20260506130043 57 0 0.0 2.0 0.00 0.13 0.06 70 1009.1
20260506125533 57 0 0.0 2.0 0.00 0.13 0.06 71 1009.1
20260506125033 57 0 0.0 2.0 0.00 0.13 0.06 72 1009.1
20260506124541 56 0 0.0 2.0 0.00 0.13 0.06 73 1009.0
20260506124033 56 0 0.0 1.0 0.00 0.13 0.06 73 1009.0
20260506123535 56 0 0.0 1.0 0.00 0.13 0.06 73 1009.0
20260506123043 56 0 0.0 2.0 0.00 0.13 0.06 73 1009.0
20260506122534 56 0 0.0 2.0 0.00 0.13 0.06 73 1009.0
20260506122038 56 0 0.0 3.0 0.00 0.13 0.06 73 1008.9
20260506121553 56 0 0.0 3.0 0.00 0.13 0.06 74 1009.1
20260506121034 56 22 0.0 3.0 0.00 0.13 0.06 76 1009.0
20260506120534 56 0 0.0 2.0 0.00 0.13 0.06 77 1008.9
20260506120057 55 0 0.0 2.0 0.00 0.13 0.06 77 1009.0
20260506115533 55 0 0.0 3.0 0.00 0.13 0.06 77 1009.0
20260506115033 55 0 0.0 3.0 0.00 0.13 0.06 77 1009.0
20260506114541 55 296 0.0 2.0 0.00 0.13 0.06 78 1009.0
20260506114035 55 0 0.0 2.0 0.00 0.13 0.06 79 1009.0
20260506113535 55 24 0.0 2.0 0.00 0.13 0.06 80 1008.9
20260506113044 55 0 0.0 3.0 0.00 0.13 0.06 80 1009.0
20260506112536 55 15 0.0 3.0 0.00 0.13 0.06 81 1008.9
20260506112034 55 0 0.0 3.0 0.00 0.13 0.06 82 1008.9
20260506111546 55 22 0.0 2.0 0.00 0.13 0.06 84 1008.8
20260506111033 55 0 0.0 2.0 0.00 0.13 0.06 85 1008.9
20260506110534 54 0 0.0 2.0 0.00 0.13 0.06 87 1008.9
20260506110048 54 0 0.0 1.0 0.00 0.13 0.06 89 1008.9
20260506105535 54 0 0.0 2.0 0.00 0.13 0.06 90 1008.9
20260506105033 54 0 0.0 2.0 0.00 0.13 0.06 90 1008.8
20260506104558 54 0 0.0 3.0 0.00 0.13 0.06 92 1009.0
20260506104032 54 0 0.0 3.0 0.00 0.13 0.06 92 1009.1
20260506103534 53 0 0.0 2.0 0.00 0.13 0.06 92 1009.0
20260506103047 53 19 0.0 2.0 0.00 0.13 0.06 93 1008.9
20260506102533 53 46 0.0 2.0 0.00 0.13 0.06 93 1008.9
20260506102034 53 360 0.0 1.0 0.00 0.13 0.06 94 1008.9
20260506101543 53 0 0.0 2.0 0.00 0.13 0.06 94 1008.9
20260506101033 52 0 0.0 2.0 0.00 0.13 0.06 94 1009.0
20260506100533 52 0 0.0 2.0 0.00 0.13 0.06 94 1009.1
20260506100051 52 0 0.0 2.0 0.00 0.13 0.06 94 1008.9
20260506095535 52 0 0.0 2.0 0.00 0.13 0.06 94 1009.0
20260506095035 52 0 0.0 2.0 0.00 0.13 0.06 94 1009.0
20260506094542 52 0 0.0 1.0 0.00 0.13 0.06 95 1009.0
20260506094033 51 0 0.0 1.0 0.00 0.13 0.06 95 1008.9
20260506093534 51 0 0.0 2.0 0.00 0.13 0.06 95 1008.9
20260506093039 51 0 0.0 4.0 0.00 0.13 0.06 95 1008.8
20260506092534 51 0 0.0 4.0 0.00 0.13 0.06 95 1008.7
20260506092036 51 0 0.0 1.0 0.00 0.13 0.06 95 1008.8
20260506091546 50 0 0.0 4.0 0.00 0.13 0.06 95 1008.9
20260506091033 50 0 0.0 4.0 0.00 0.13 0.06 95 1008.9
20260506090533 50 0 0.0 2.0 0.00 0.13 0.06 95 1008.8
20260506090043 50 0 0.0 2.0 0.00 0.13 0.06 95 1008.7
20260506085533 50 0 0.0 2.0 0.00 0.13 0.06 95 1008.6
20260506085034 50 0 0.0 2.0 0.00 0.13 0.06 95 1008.7
20260506084616 50 0 0.0 1.0 0.00 0.13 0.06 95 1008.6
20260506084034 50 11 0.0 2.0 0.00 0.13 0.06 95 1008.5
20260506083532 49 0 0.0 2.0 0.00 0.13 0.06 95 1008.6
20260506083043 49 0 0.0 2.0 0.00 0.13 0.06 95 1008.4
20260506082535 49 0 0.0 2.0 0.00 0.13 0.06 95 1008.5
20260506082034 49 0 0.0 2.0 0.00 0.13 0.06 95 1008.5
20260506081555 49 0 0.0 2.0 0.00 0.13 0.06 95 1008.4
20260506081034 48 0 0.0 1.0 0.00 0.13 0.06 95 1008.3
20260506080535 48 0 0.0 1.0 0.00 0.13 0.06 94 1008.5
20260506073050 48 0 0.0 2.0 0.00 0.13 0.06 94 1008.3
20260506072535 48 0 0.0 2.0 0.00 0.13 0.06 94 1008.2
20260506072035 48 0 0.0 2.0 0.00 0.13 0.06 94 1008.3
20260506071543 48 277 0.0 2.0 0.00 0.13 0.06 94 1008.3
20260506071034 48 0 0.0 2.0 0.00 0.13 0.06 94 1008.2
20260506070534 48 0 0.0 2.0 0.00 0.13 0.06 94 1008.2
20260506062035 47 0 0.0 2.0 0.00 0.12 0.05 94 1008.1
20260506061543 47 0 0.0 2.0 0.00 0.12 0.05 94 1008.0
20260506061035 47 0 0.0 2.0 0.00 0.12 0.05 94 1008.2
20260506060534 47 0 0.0 2.0 0.00 0.12 0.05 94 1008.1
20260506051031 47 0 0.0 3.0 0.00 0.12 0.05 94 1007.9
20260506050534 47 0 0.0 1.0 0.00 0.12 0.05 94 1007.9
20260506045036 47 0 0.0 1.0 0.00 0.12 0.05 94 1007.9
20260506044543 47 0 0.0 1.0 0.00 0.12 0.05 94 1007.8
20260506044035 47 0 0.0 1.0 0.00 0.12 0.05 94 1007.9
20260506043534 47 0 0.0 1.0 0.00 0.12 0.05 94 1007.8
20260506043044 47 0 0.0 1.0 0.00 0.12 0.05 94 1007.8
20260506042535 47 0 0.0 1.0 0.00 0.12 0.05 94 1008.0
20260506042035 47 0 0.0 1.0 0.00 0.12 0.05 94 1007.8
20260506041556 47 0 0.0 1.0 0.00 0.12 0.05 94 1007.8
20260506041031 47 0 0.0 1.0 0.00 0.12 0.05 94 1007.8
20260506040535 47 0 0.0 1.0 0.00 0.12 0.05 94 1007.9
20260506040042 47 0 0.0 1.0 0.00 0.12 0.05 94 1007.9
20260506035535 47 0 0.0 1.0 0.00 0.15 0.05 94 1007.9
20260506035034 47 0 0.0 1.0 0.00 0.15 0.05 94 1007.8
20260506034545 47 0 0.0 1.0 0.00 0.15 0.05 94 1007.9
20260506034034 47 0 0.0 1.0 0.00 0.15 0.05 94 1007.9
20260506033533 47 0 0.0 1.0 0.00 0.15 0.05 94 1008.0
20260506033044 47 0 0.0 1.0 0.00 0.15 0.05 94 1007.9
20260506032535 47 267 0.0 1.0 0.00 0.15 0.05 94 1007.9
20260506032037 47 0 0.0 1.0 0.00 0.15 0.05 94 1007.9
20260506031545 47 0 0.0 1.0 0.00 0.15 0.05 94 1008.0
20260506031034 47 0 0.0 0.0 0.00 0.15 0.05 94 1008.0
20260506030537 47 0 0.0 0.0 0.00 0.15 0.05 94 1008.0
20260506030044 47 0 0.0 0.0 0.00 0.15 0.05 94 1008.0
20260506025535 47 0 0.0 0.0 0.00 0.15 0.05 94 1008.1
20260506025035 47 0 0.0 0.0 0.00 0.14 0.04 94 1008.0
20260506024542 47 0 0.0 1.0 0.00 0.14 0.04 94 1008.1
20260506024034 47 0 0.0 1.0 0.00 0.14 0.04 94 1008.2
20260506023535 47 0 0.0 2.0 0.00 0.14 0.04 94 1008.1
20260506023102 47 0 0.0 2.0 0.00 0.14 0.04 94 1008.2
20260506022535 47 0 0.0 1.0 0.00 0.14 0.04 94 1008.2
20260506022034 47 0 0.0 2.0 0.00 0.14 0.04 94 1008.2
20260506021606 47 0 0.0 2.0 0.00 0.14 0.04 94 1008.3
20260506021035 47 0 0.0 2.0 0.00 0.14 0.04 94 1008.1
20260506020534 47 0 0.0 1.0 0.00 0.14 0.04 94 1008.1
20260506020041 47 0 0.0 2.0 0.00 0.14 0.04 94 1008.2
20260506015531 47 0 0.0 2.0 0.00 0.14 0.04 94 1008.3
20260506015038 47 0 0.0 2.0 0.00 0.14 0.04 94 1008.3
20260506014545 48 304 0.0 1.0 0.00 0.14 0.04 94 1008.2
20260506014034 48 0 0.0 1.0 0.00 0.14 0.04 94 1008.2
20260506013536 48 304 0.0 0.0 0.00 0.14 0.04 94 1008.3
20260506013058 48 0 0.0 1.0 0.00 0.14 0.04 94 1008.3
20260506012535 48 0 0.0 1.0 0.00 0.14 0.04 94 1008.5
20260506012034 48 0 0.0 1.0 0.00 0.14 0.04 94 1008.3
20260506011604 48 0 0.0 1.0 0.00 0.14 0.04 94 1008.3
20260506011034 48 0 0.0 0.0 0.00 0.14 0.04 94 1008.3
20260506010534 48 0 0.0 0.0 0.00 0.14 0.03 94 1008.3
20260506010055 48 0 0.0 1.0 0.00 0.14 0.03 94 1008.4
20260506005536 48 0 0.0 1.0 0.00 0.14 0.03 94 1008.4
20260506005035 48 0 0.0 1.0 0.00 0.14 0.03 94 1008.4
20260506004543 48 0 0.0 1.0 0.00 0.14 0.03 94 1008.5
20260506004034 48 0 0.0 1.0 0.00 0.14 0.03 94 1008.5
20260506003534 48 0 0.0 0.0 0.00 0.14 0.03 94 1008.6
20260506003049 48 0 0.0 0.0 0.00 0.14 0.03 94 1008.6
20260506002533 48 0 0.0 1.0 0.00 0.14 0.03 94 1008.7
20260506002034 48 0 0.0 1.0 0.00 0.14 0.03 94 1008.7
20260506001542 48 0 0.0 1.0 0.00 0.14 0.03 94 1008.7
20260506001034 48 0 0.0 2.0 0.00 0.14 0.03 94 1008.8
20260506000535 48 0 0.0 2.0 0.01 0.14 0.03 94 1008.7
20260506000045 48 0 0.0 1.0 0.00 0.13 0.03 94 1008.8
20260505235535 48 0 0.0 1.0 0.00 0.15 0.03 94 1008.9
20260505235035 48 0 0.0 1.0 0.00 0.15 0.03 94 1008.9
20260505234540 49 0 0.0 1.0 0.00 0.15 0.03 94 1008.9
20260505234036 49 0 0.0 1.0 0.00 0.15 0.03 94 1008.8
20260505233534 49 0 0.0 1.0 0.00 0.15 0.03 94 1008.8
20260505233037 49 0 0.0 1.0 0.01 0.15 0.03 94 1008.9
20260505232535 49 0 0.0 1.0 0.01 0.15 0.03 94 1008.9
20260505232034 49 0 0.0 0.0 0.02 0.15 0.03 94 1008.9
20260505231603 49 0 0.0 0.0 0.02 0.15 0.03 94 1008.8
20260505231033 49 0 0.0 0.0 0.03 0.15 0.03 94 1008.9
20260505230533 49 0 0.0 1.0 0.02 0.14 0.02 94 1009.0
20260505230041 49 0 0.0 1.0 0.02 0.14 0.02 94 1009.0
20260505225534 49 0 0.0 1.0 0.03 0.24 0.02 94 1009.1
20260505225035 49 0 0.0 1.0 0.03 0.24 0.02 94 1009.1
20260505224542 49 0 0.0 1.0 0.03 0.24 0.02 94 1009.1
20260505224033 49 0 0.0 2.0 0.03 0.24 0.02 94 1009.1
20260505223533 49 0 0.0 2.0 0.03 0.24 0.02 94 1009.1
20260505223048 49 0 0.0 2.0 0.03 0.23 0.01 94 1009.1
20260505222533 50 0 0.0 2.0 0.03 0.23 0.01 94 1009.2
20260505222034 50 0 0.0 2.0 0.03 0.22 0.00 94 1009.1
20260505221543 50 345 0.0 2.0 0.03 0.22 0.00 94 1009.2
20260505221034 50 0 0.0 2.0 0.03 0.22 0.00 94 1009.3
20260505220534 51 0 0.0 2.0 0.03 0.22 0.00 94 1009.2
20260505220051 51 217 0.0 1.0 0.03 0.22 0.00 94 1009.3
20260505215534 51 0 0.0 1.0 0.03 0.25 0.21 94 1009.3
20260505215034 51 0 0.0 0.0 0.03 0.25 0.21 94 1009.2
20260505214554 51 0 0.0 0.0 0.02 0.25 0.20 94 1009.3
20260505214034 51 0 0.0 0.0 0.03 0.25 0.20 94 1009.4
20260505213533 51 0 0.0 0.0 0.03 0.25 0.20 94 1009.2
20260505213044 51 0 0.0 0.0 0.02 0.24 0.19 94 1009.3
20260505212534 51 0 0.0 0.0 0.02 0.24 0.19 94 1009.4
20260505212033 51 0 0.0 0.0 0.02 0.24 0.19 94 1009.3
20260505211543 51 0 0.0 0.0 0.01 0.23 0.18 94 1009.4
20260505211032 51 0 0.0 0.0 0.01 0.23 0.18 94 1009.3
20260505210532 51 0 0.0 0.0 0.01 0.23 0.18 94 1009.4
20260505210045 51 0 0.0 0.0 0.00 0.22 0.18 94 1009.5
20260505205532 51 0 0.0 0.0 0.00 0.24 0.18 94 1009.3
20260505205031 51 0 0.0 0.0 0.00 0.24 0.18 94 1009.4
20260505204548 51 0 0.0 0.0 0.00 0.24 0.18 94 1009.5
20260505204032 51 0 0.0 0.0 0.00 0.23 0.17 94 1009.4
20260505203535 51 0 0.0 0.0 0.00 0.23 0.17 94 1009.4
20260505203104 51 0 0.0 0.0 0.00 0.23 0.17 94 1009.4
20260505202534 51 0 0.0 0.0 0.00 0.23 0.17 94 1009.4
20260505202031 51 0 0.0 0.0 0.00 0.23 0.17 94 1009.3
20260505201547 51 0 0.0 0.0 0.00 0.23 0.17 94 1009.3
20260505201033 51 0 0.0 0.0 0.00 0.23 0.17 94 1009.3
20260505200535 51 0 0.0 0.0 0.00 0.23 0.17 94 1009.3
20260505200049 51 0 0.0 0.0 0.00 0.23 0.17 94 1009.3
20260505195535 51 0 0.0 0.0 0.00 0.23 0.17 94 1009.3
20260505195034 51 0 0.0 0.0 0.00 0.23 0.17 94 1009.4